Probability
24 26 29 30 30 29 26 25 21 16 14 15 16 16 18 20 19 18 20 30 40 43 43 40 35 28 22 20 20 18 17 16 12 10 8 7 7 6 6 6 6 5 4
23 24 25 27 26 24 22 21 18 15 13 13 14 16 18 19 20 19 20 29 38 42 43 43 42 37 30 26 24 25 27 25 20 15 11 9 7 7 6 6 6 5 5
18 20 21 21 19 16 14 14 14 13 11 12 13 16 19 20 20 19 21 28 36 40 42 45 48 48 41 33 29 32 38 39 33 25 16 11 9 7 7 6 6 6 6
11 13 15 15 12 9 7 8 10 10 9 10 12 14 16 18 19 17 20 27 34 39 42 42 46 51 46 36 32 37 48 52 48 38 26 18 13 10 8 7 7 7 6
5 6 8 8 6 5 5 6 6 6 6 7 6 6 8 12 14 14 16 22 28 35 38 39 41 45 44 38 39 48 57 62 59 51 40 31 23 16 10 8 8 7 6
2 2 2 3 3 3 4 4 3 3 3 3 1 1 2 4 7 9 12 16 21 25 29 34 40 41 39 41 49 58 64 66 65 61 54 45 36 26 16 9 7 6 6
1 0 0 1 1 1 1 1 1 1 2 1 0 0 0 1 3 5 10 15 18 19 22 29 38 41 41 44 50 58 63 65 69 69 64 57 49 38 25 14 7 5 4
2 1 0 0 0 0 0 0 0 0 0 0 0 0 0 1 2 3 8 13 15 17 20 23 29 35 39 44 43 46 53 61 69 72 69 64 58 47 34 21 12 6 4
2 1 0 0 0 0 0 0 0 0 0 0 0 0 0 0 1 2 5 7 8 11 15 15 16 21 28 35 36 33 39 50 60 67 69 67 60 52 41 30 20 10 6
3 2 1 0 0 0 0 0 0 0 0 0 0 0 0 0 0 1 1 2 3 6 8 9 8 11 16 22 26 26 25 32 43 54 63 65 61 55 48 39 29 17 11
6 4 2 0 0 0 0 0 0 0 0 0 0 0 0 0 0 0 0 1 1 3 5 5 5 7 10 14 16 15 13 16 24 36 48 55 57 56 53 47 38 28 20
6 4 1 0 0 0 0 0 0 0 0 0 0 0 0 0 0 0 0 0 1 2 3 3 3 4 6 8 7 4 4 6 10 18 28 37 43 49 52 50 46 40 35
3 2 1 0 0 0 0 0 0 0 0 0 0 0 0 0 0 0 0 0 0 1 2 1 1 2 4 6 3 1 1 3 3 6 11 16 23 31 39 43 47 47 46
1 1 0 0 0 1 0 0 0 0 0 0 0 0 0 0 0 0 0 0 0 0 0 1 1 1 2 3 2 1 1 2 1 2 2 4 7 11 18 25 32 36 36
1 1 1 0 0 0 0 0 0 0 0 0 0 0 0 0 0 0 0 0 0 0 0 0 0 0 0 1 0 0 1 1 0 0 0 0 0 1 3 7 11 13 12
2 2 2 1 1 0 0 0 0 0 0 0 0 1 0 0 0 0 0 0 0 0 0 0 0 0 0 0 0 0 0 0 0 0 0 0 0 0 0 0 1 1 0
2 2 3 3 2 0 0 0 0 0 0 0 0 0 0 0 0 0 0 0 0 0 0 0 0 0 0 1 1 1 0 0 0 0 0 0 0 0 0 0 0 0 0
4 4 5 4 2 0 0 0 1 1 1 0 0 0 0 0 0 0 0 0 0 0 0 0 0 0 0 1 2 2 1 0 0 0 0 0 0 0 0 0 0 0 0
5 5 6 5 3 1 0 1 2 2 2 1 1 0 0 0 0 1 1 1 0 0 0 0 0 0 0 1 2 2 1 0 0 0 0 0 0 0 0 0 0 0 0
4 4 5 5 4 1 0 1 1 2 2 3 2 1 0 0 0 0 0 0 0 0 0 0 0 0 0 0 1 1 0 0 0 1 1 0 0 0 0 0 0 0 0
5 5 5 4 4 2 0 0 0 0 1 3 3 2 1 0 0 0 0 0 0 0 0 0 0 0 0 0 0 0 0 0 1 2 3 1 0 0 0 0 0 0 0
9 9 7 6 4 2 0 0 0 0 0 2 3 3 2 0 0 0 0 0 0 0 0 0 0 0 0 1 0 0 0 0 1 3 4 3 2 1 1 0 0 0 0
13 14 12 9 6 3 1 0 0 0 0 1 2 3 2 1 0 0 0 0 0 0 0 0 0 0 0 1 1 1 1 0 0 2 3 3 3 3 2 1 0 0 0
17 17 15 11 8 5 1 0 0 0 0 1 2 3 3 2 1 0 0 0 0 0 0 0 0 0 0 1 2 2 1 0 0 0 1 1 2 3 2 1 0 0 0
19 17 14 11 10 8 3 0 0 0 0 1 2 3 3 2 1 0 0 0 0 0 0 0 0 0 0 1 1 1 1 0 0 0 0 0 1 2 2 1 0 0 0
18 16 13 12 12 11 6 1 0 0 0 1 2 3 2 1 0 0 0 0 0 0 0 0 0 0 0 0 0 0 0 0 0 0 0 0 1 2 1 0 0 0 0
Wind_Speed
2 2 1 1 2 1 0 1 1 2 3 4 4 5 5 5 5 4 3 11 14 14 14 15 16 16 16 16 15 15 15 15 14 13 12 12 12 13 12 11 11 10 9
2 2 2 1 2 1 1 2 3 2 3 3 5 5 5 6 5 5 3 6 11 13 14 15 16 17 17 18 17 17 16 16 15 14 14 13 13 13 13 12 12 11 10
3 3 2 1 1 1 1 2 3 3 4 4 4 4 5 5 5 6 5 4 6 12 15 15 16 17 18 19 19 18 18 17 16 16 15 15 14 14 14 13 13 12 11
3 3 3 2 3 3 2 2 2 2 2 3 3 3 4 4 6 6 6 6 5 6 11 17 17 17 19 20 20 20 19 18 18 18 17 17 16 16 15 15 14 13 13
3 3 3 2 3 3 3 4 2 3 3 4 4 5 4 4 5 7 7 7 7 7 6 11 18 19 21 22 22 21 20 20 19 19 20 19 18 17 17 16 15 15 14
3 3 3 3 4 3 3 3 4 3 3 4 7 6 4 5 5 6 7 6 6 8 9 9 10 14 21 21 20 20 21 21 21 21 21 21 21 19 18 18 17 16 16
3 2 3 4 3 3 3 4 4 5 4 4 4 5 5 7 6 6 5 4 4 5 5 6 6 6 8 18 19 19 21 22 21 21 21 21 21 20 20 19 19 18 17
1 3 3 3 4 4 4 4 3 3 4 5 4 4 5 5 3 3 3 4 4 2 2 5 4 6 6 5 11 19 20 21 22 22 21 21 21 21 21 21 20 19 19
1 1 2 3 3 4 4 4 3 4 4 4 4 3 3 3 5 3 3 1 1 1 1 2 4 5 7 5 6 14 20 20 21 23 22 22 22 22 22 22 22 21 20
2 2 2 2 2 3 5 5 4 4 4 4 4 3 3 3 3 4 4 3 2 2 3 3 3 3 5 5 6 10 15 18 20 22 22 22 22 22 22 22 23 23 22
3 3 3 1 1 3 4 4 4 4 4 4 4 4 5 3 3 4 5 5 4 2 3 3 3 3 4 4 5 8 12 15 17 18 20 20 22 23 24 24 25 24 24
2 2 2 1 1 2 3 4 4 5 4 4 4 4 5 4 4 3 4 5 5 3 3 2 2 3 3 4 7 8 9 12 14 15 17 19 21 22 24 25 26 25 25
2 2 2 1 2 3 4 4 4 5 5 5 4 4 4 4 4 4 4 5 6 5 4 3 3 3 3 3 3 5 7 10 12 12 14 16 18 21 23 24 25 25 25
3 2 2 2 3 4 5 4 4 5 5 5 6 5 4 5 4 4 4 4 5 5 5 5 2 2 2 1 2 4 4 8 10 11 12 14 16 18 20 21 22 23 23
4 4 3 4 4 5 5 5 4 5 5 5 5 6 5 4 4 4 4 4 4 6 6 5 3 2 2 2 3 3 4 6 9 11 12 13 14 16 18 19 20 21 21
4 4 5 5 5 5 5 5 5 6 6 6 5 6 5 5 5 4 4 4 4 5 6 5 4 4 3 3 3 3 4 6 9 12 13 13 15 16 17 18 19 19 20
4 4 5 5 5 6 6 5 6 7 7 7 7 7 7 6 5 5 5 4 4 5 6 5 4 4 4 4 3 3 4 5 5 11 13 14 15 16 16 17 18 19 20
4 5 5 5 6 6 6 6 7 7 6 7 7 7 7 7 6 6 5 6 5 5 6 7 5 5 6 6 5 5 5 6 5 9 12 14 15 16 16 17 18 18 19
4 5 5 5 6 6 6 6 6 7 7 7 7 7 7 7 7 6 6 6 5 7 5 6 6 5 5 5 5 5 6 4 6 7 10 12 14 15 16 17 17 18 19
5 5 6 6 6 7 7 7 6 6 6 7 7 7 7 8 8 7 7 6 6 6 6 6 6 5 5 6 5 4 4 4 5 6 6 7 10 13 15 16 17 18 18
6 5 5 6 6 7 7 5 4 7 6 6 7 7 8 10 10 8 8 6 6 5 5 6 6 5 5 4 4 3 4 3 4 4 4 4 5 6 8 12 16 18 18
5 5 6 7 7 8 3 2 4 6 6 7 8 8 9 10 12 14 15 13 11 8 7 6 6 6 6 5 4 4 3 3 3 2 3 4 3 4 5 6 11 15 17
5 5 6 6 7 7 8 8 8 6 8 8 8 8 10 11 9 6 9 14 14 16 14 9 9 9 8 6 5 5 5 4 4 3 2 3 2 3 2 3 9 13 15
5 5 6 7 7 8 8 9 9 8 9 9 9 9 9 9 11 8 7 7 7 9 11 11 11 11 10 7 6 6 6 6 5 4 4 3 2 2 1 1 4 10 13
5 6 7 7 7 7 8 9 9 6 7 9 9 10 9 9 10 9 7 7 7 7 11 14 14 14 15 13 7 4 5 5 6 5 3 3 2 1 1 1 1 5 10
6 7 7 7 7 7 8 10 11 7 7 7 7 7 10 9 7 6 6 7 8 7 8 8 8 10 11 12 13 9 7 7 6 5 4 4 3 3 1 1 1 2 4
Wind_Direction
29 21 358 328 298 302 328 320 292 285 277 271 261 261 268 264 260 249 198 186 190 192 194 194 198 202 204 203 202 200 198 195 190 188 187 185 182 180 180 179 175 171 168
37 6 316 307 298 326 348 290 271 261 258 254 256 252 249 255 253 256 231 203 200 201 202 205 207 208 209 208 207 204 202 200 194 191 191 190 188 186 186 185 182 178 175
24 348 313 324 360 323 282 266 277 274 268 263 258 261 256 254 254 246 242 223 209 213 213 213 212 212 213 213 211 208 205 202 198 194 194 194 192 190 190 189 187 184 181
23 341 331 15 3 332 311 287 260 277 301 307 298 279 266 253 254 245 233 227 221 221 219 221 219 217 217 217 216 213 208 205 201 198 197 197 196 194 193 192 191 189 187
18 353 341 356 337 324 315 314 5 356 330 320 299 268 256 249 243 246 234 229 222 219 216 218 219 219 220 221 219 216 211 208 205 202 201 200 200 199 196 195 194 192 191
25 11 318 10 356 326 330 345 339 322 298 283 287 297 289 263 247 242 238 232 223 224 221 219 210 219 222 223 221 219 215 211 208 207 206 204 203 201 199 198 197 196 195
21 336 325 349 325 322 338 328 332 321 308 288 286 288 280 263 243 228 224 228 234 235 227 217 203 203 214 221 222 221 219 216 212 210 210 208 206 203 201 200 198 198 198
1 314 24 339 340 337 311 295 297 297 303 312 311 304 300 293 307 262 214 209 219 223 244 238 216 209 214 205 217 222 223 221 217 213 211 210 208 206 204 203 201 199 199
314 319 322 313 329 315 318 337 315 308 305 306 297 299 306 326 335 323 332 298 195 205 244 259 239 224 223 217 210 218 222 222 222 219 215 212 209 206 205 205 203 202 202
266 267 273 294 315 313 313 310 354 333 312 304 303 297 283 302 307 318 320 318 275 235 229 251 262 245 234 226 221 220 220 221 223 223 220 215 210 207 206 206 207 206 204
242 226 226 229 284 288 299 320 320 313 309 305 311 314 309 298 262 264 291 306 301 272 240 230 237 239 241 233 227 227 221 219 221 223 222 219 214 209 207 208 211 211 209
264 222 216 170 262 286 306 308 300 291 285 293 298 301 302 298 293 289 292 298 296 290 271 251 247 238 235 230 238 237 222 217 217 220 223 221 218 213 211 210 212 214 213
316 21 27 29 307 298 288 279 279 276 279 281 281 277 284 291 294 295 294 295 297 297 287 264 240 235 243 226 224 235 228 218 217 220 224 223 219 216 212 211 212 214 214
317 343 323 284 272 272 278 281 281 274 269 266 269 269 273 277 278 279 278 286 292 292 285 275 250 235 243 234 203 205 232 226 222 223 227 227 222 216 212 211 210 211 212
304 328 325 298 278 270 266 267 264 269 274 271 268 267 257 266 270 266 265 265 272 282 285 286 278 258 241 219 192 211 230 232 229 226 226 227 223 218 213 210 209 209 208
288 289 281 284 283 278 270 260 261 261 259 258 254 259 264 265 270 274 271 264 259 265 275 283 283 274 274 271 211 224 242 242 236 231 228 225 222 219 216 212 209 208 207
274 275 275 275 276 275 271 264 262 264 262 261 263 262 256 254 258 268 273 271 265 260 268 275 275 280 279 272 259 244 255 241 238 233 230 227 223 220 217 214 211 208 207
269 272 271 273 275 277 274 271 269 273 270 267 264 263 264 263 253 252 260 267 269 269 268 273 275 273 269 264 249 236 245 248 242 235 229 226 222 219 216 214 212 210 208
273 276 276 275 275 275 274 273 270 269 269 271 269 266 263 262 262 253 252 258 266 269 266 266 270 264 261 260 260 250 246 241 251 247 231 225 220 218 215 213 212 210 208
272 271 270 271 272 273 273 271 272 274 274 273 271 268 265 260 258 256 256 251 255 263 269 269 267 264 261 255 249 241 248 234 240 244 239 221 216 216 216 212 211 209 207
272 275 277 277 275 274 272 281 288 287 291 291 285 278 272 266 257 253 257 254 260 261 266 267 267 266 262 260 261 253 252 249 239 231 232 221 211 213 212 215 213 210 206
268 272 275 278 278 282 292 278 270 291 289 285 282 279 279 272 259 245 242 243 244 251 259 265 271 271 275 284 288 285 278 269 264 236 225 238 217 217 211 209 207 204 203
272 272 272 273 274 275 264 249 245 261 273 274 274 276 278 279 284 267 246 241 242 243 241 247 260 265 271 280 297 298 291 284 275 274 256 255 236 230 225 230 207 199 198
273 275 274 274 272 272 261 239 238 249 266 267 266 265 265 268 273 272 272 262 249 245 238 236 241 250 255 260 264 272 275 279 270 253 226 239 235 236 235 239 206 196 194
267 269 272 268 268 268 253 232 228 256 264 269 268 269 267 264 262 254 255 260 262 260 258 249 235 236 239 244 245 261 267 265 267 258 221 211 207 208 219 251 219 195 194
267 271 270 269 272 273 257 231 219 248 267 274 275 273 272 268 261 240 247 258 263 265 272 277 260 250 246 243 234 230 240 249 255 258 224 197 192 173 187 215 180 171 182